| time (UTC) | temp F | wind direction | speed knots | gust knots | rain 1hr in | rain 24hr in | rain mn in | humidity % | barometer mb |
| 20260505140600 | 54 | 0 | 7.0 | 12.2 | 0.00 | 0.00 | 0.00 | 52 | 1007.5 |
| 20260505130306 | 54 | 0 | 6.1 | 9.6 | 0.00 | 0.00 | 0.00 | 56 | 1006.2 |
| 20260505124510 | 54 | 0 | 5.2 | 11.3 | 0.00 | 0.00 | 0.00 | 56 | 1005.8 |
| 20260505124012 | 54 | 0 | 6.1 | 12.2 | 0.00 | 0.00 | 0.00 | 56 | 1005.5 |
| 20260505124008 | 54 | 0 | 5.2 | 9.6 | 0.00 | 0.00 | 0.00 | 56 | 1005.7 |
| 20260505123008 | 55 | 0 | 6.1 | 12.2 | 0.00 | 0.00 | 0.00 | 56 | 1005.6 |
| 20260505122507 | 55 | 0 | 6.1 | 11.3 | 0.00 | 0.00 | 0.00 | 57 | 1005.3 |
| 20260505121959 | 55 | 0 | 6.1 | 12.2 | 0.00 | 0.00 | 0.00 | 57 | 1005.2 |
| 20260505121457 | 55 | 0 | 7.0 | 12.2 | 0.00 | 0.00 | 0.00 | 57 | 1005.1 |
| 20260505121226 | 55 | 0 | 7.8 | 12.2 | 0.00 | 0.00 | 0.00 | 57 | 1004.8 |
| 20260505120446 | 56 | 0 | 8.7 | 13.9 | 0.00 | 0.00 | 0.00 | 57 | 1005.0 |
| 20260505120216 | 56 | 0 | 8.7 | 13.9 | 0.00 | 0.00 | 0.00 | 56 | 1004.9 |
| 20260505115444 | 56 | 0 | 7.0 | 13.0 | 0.00 | 0.00 | 0.00 | 57 | 1005.2 |
| 20260505114946 | 56 | 0 | 6.1 | 12.2 | 0.00 | 0.00 | 0.00 | 58 | 1004.8 |
| 20260505114445 | 57 | 0 | 5.2 | 9.6 | 0.00 | 0.00 | 0.00 | 58 | 1004.8 |
| 20260505113936 | 57 | 0 | 6.1 | 10.4 | 0.00 | 0.00 | 0.00 | 58 | 1004.9 |
| 20260505113436 | 57 | 0 | 7.0 | 15.6 | 0.00 | 0.00 | 0.00 | 57 | 1004.9 |
| 20260505112935 | 57 | 0 | 7.8 | 15.6 | 0.00 | 0.00 | 0.00 | 57 | 1004.8 |
| 20260505112434 | 58 | 0 | 7.8 | 13.9 | 0.00 | 0.00 | 0.00 | 56 | 1004.4 |
| 20260505111934 | 58 | 0 | 7.8 | 13.9 | 0.00 | 0.00 | 0.00 | 55 | 1004.6 |
| 20260505111431 | 59 | 0 | 8.7 | 14.8 | 0.00 | 0.00 | 0.00 | 54 | 1004.7 |
| 20260505110929 | 59 | 0 | 8.7 | 16.5 | 0.00 | 0.00 | 0.00 | 53 | 1004.4 |
| 20260505110429 | 60 | 0 | 8.7 | 19.1 | 0.00 | 0.00 | 0.00 | 51 | 1004.5 |
| 20260505101920 | 67 | 0 | 7.8 | 16.5 | 0.00 | 0.00 | 0.00 | 28 | 1004.1 |
| 20260505101421 | 67 | 0 | 7.0 | 13.9 | 0.00 | 0.00 | 0.00 | 27 | 1004.2 |
| 20260505100920 | 68 | 0 | 5.2 | 10.4 | 0.00 | 0.00 | 0.00 | 27 | 1003.9 |
| 20260505100420 | 68 | 0 | 6.1 | 13.0 | 0.00 | 0.00 | 0.00 | 27 | 1003.7 |
| 20260505095921 | 68 | 0 | 8.7 | 14.8 | 0.00 | 0.00 | 0.00 | 27 | 1003.6 |
| 20260505095415 | 68 | 0 | 8.7 | 19.1 | 0.00 | 0.00 | 0.00 | 27 | 1003.4 |
| 20260505094917 | 67 | 0 | 7.0 | 19.1 | 0.00 | 0.00 | 0.00 | 27 | 1003.1 |
| 20260505094414 | 68 | 0 | 7.0 | 11.3 | 0.00 | 0.00 | 0.00 | 27 | 1002.7 |
| 20260505093910 | 68 | 0 | 7.8 | 12.2 | 0.00 | 0.00 | 0.00 | 26 | 1002.4 |
| 20260505093638 | 68 | 0 | 7.0 | 12.2 | 0.00 | 0.00 | 0.00 | 26 | 1002.4 |
| 20260505092909 | 68 | 0 | 7.8 | 15.6 | 0.00 | 0.00 | 0.00 | 26 | 1002.1 |
| 20260505092401 | 68 | 0 | 8.7 | 15.6 | 0.00 | 0.00 | 0.00 | 26 | 1002.1 |
| 20260505092133 | 68 | 0 | 7.8 | 14.8 | 0.00 | 0.00 | 0.00 | 26 | 1002.1 |
| 20260505091358 | 68 | 0 | 7.0 | 12.2 | 0.00 | 0.00 | 0.00 | 26 | 1002.3 |
| 20260505090854 | 68 | 0 | 7.0 | 11.3 | 0.00 | 0.00 | 0.00 | 26 | 1002.3 |
| 20260505090354 | 68 | 0 | 6.1 | 11.3 | 0.00 | 0.00 | 0.00 | 26 | 1002.3 |
| 20260505085850 | 68 | 0 | 6.1 | 13.0 | 0.00 | 0.00 | 0.00 | 25 | 1002.4 |
| 20260505085348 | 69 | 0 | 6.1 | 13.0 | 0.00 | 0.00 | 0.00 | 25 | 1002.3 |
| 20260505084849 | 69 | 0 | 5.2 | 11.3 | 0.00 | 0.00 | 0.00 | 25 | 1002.3 |
| 20260505084339 | 69 | 0 | 6.1 | 11.3 | 0.00 | 0.00 | 0.00 | 25 | 1002.3 |
| 20260505083837 | 69 | 0 | 6.1 | 11.3 | 0.00 | 0.00 | 0.00 | 25 | 1002.2 |
| 20260505083332 | 69 | 0 | 6.1 | 11.3 | 0.00 | 0.00 | 0.00 | 24 | 1002.2 |
| 20260505082833 | 69 | 0 | 6.1 | 11.3 | 0.00 | 0.00 | 0.00 | 24 | 1002.2 |
| 20260505082332 | 69 | 0 | 6.1 | 10.4 | 0.00 | 0.00 | 0.00 | 24 | 1002.1 |
| 20260505081833 | 70 | 0 | 5.2 | 10.4 | 0.00 | 0.00 | 0.00 | 24 | 1002.1 |
| 20260505081333 | 70 | 0 | 7.0 | 12.2 | 0.00 | 0.00 | 0.00 | 24 | 1002.1 |
| 20260505081105 | 70 | 0 | 7.8 | 12.2 | 0.00 | 0.00 | 0.00 | 23 | 1002.1 |
| 20260505080332 | 70 | 0 | 7.0 | 11.3 | 0.00 | 0.00 | 0.00 | 23 | 1002.1 |
| 20260505075827 | 71 | 0 | 6.1 | 10.4 | 0.00 | 0.00 | 0.00 | 23 | 1002.2 |
| 20260505075325 | 71 | 0 | 6.1 | 10.4 | 0.00 | 0.00 | 0.00 | 23 | 1002.3 |
| 20260505074821 | 71 | 0 | 6.1 | 10.4 | 0.00 | 0.00 | 0.00 | 23 | 1002.4 |
| 20260505074320 | 71 | 0 | 6.1 | 9.6 | 0.00 | 0.00 | 0.00 | 23 | 1002.5 |
| 20260505073818 | 71 | 0 | 6.1 | 10.4 | 0.00 | 0.00 | 0.00 | 23 | 1002.5 |
| 20260505073316 | 71 | 0 | 6.1 | 10.4 | 0.00 | 0.00 | 0.00 | 23 | 1002.6 |
| 20260505072812 | 71 | 0 | 6.1 | 10.4 | 0.00 | 0.00 | 0.00 | 23 | 1002.6 |
| 20260505072310 | 71 | 0 | 6.1 | 11.3 | 0.00 | 0.00 | 0.00 | 23 | 1002.5 |
| 20260505071759 | 71 | 0 | 5.2 | 11.3 | 0.00 | 0.00 | 0.00 | 23 | 1002.6 |
| 20260505071257 | 71 | 0 | 5.2 | 9.6 | 0.00 | 0.00 | 0.00 | 23 | 1002.6 |
| 20260505070754 | 71 | 0 | 5.2 | 9.6 | 0.00 | 0.00 | 0.00 | 23 | 1002.5 |
| 20260505070252 | 71 | 0 | 4.3 | 7.8 | 0.00 | 0.00 | 0.00 | 23 | 1002.5 |
| 20260505065754 | 71 | 0 | 5.2 | 9.6 | 0.00 | 0.00 | 0.00 | 23 | 1002.5 |
| 20260505065749 | 71 | 0 | 4.3 | 9.6 | 0.00 | 0.00 | 0.00 | 23 | 1002.5 |
| 20260505065359 | 72 | 0 | 6.1 | 9.6 | 0.00 | 0.00 | 0.00 | 23 | 1002.5 |
| 20260505064240 | 72 | 0 | 5.2 | 10.4 | 0.00 | 0.00 | 0.00 | 23 | 1002.7 |
| 20260505063742 | 72 | 0 | 6.1 | 10.4 | 0.00 | 0.00 | 0.00 | 22 | 1002.7 |
| 20260505063240 | 72 | 0 | 6.1 | 10.4 | 0.00 | 0.00 | 0.00 | 22 | 1002.6 |
| 20260505062737 | 72 | 0 | 6.1 | 12.2 | 0.00 | 0.00 | 0.00 | 22 | 1002.6 |
| 20260505062508 | 72 | 0 | 6.1 | 12.2 | 0.00 | 0.00 | 0.00 | 22 | 1002.7 |
| 20260505061737 | 73 | 0 | 7.0 | 11.3 | 0.00 | 0.00 | 0.00 | 22 | 1002.7 |
| 20260505061234 | 73 | 0 | 7.0 | 11.3 | 0.00 | 0.00 | 0.00 | 22 | 1002.7 |
| 20260505061008 | 73 | 0 | 7.0 | 14.8 | 0.00 | 0.00 | 0.00 | 22 | 1002.8 |
| 20260505060235 | 73 | 0 | 7.8 | 14.8 | 0.00 | 0.00 | 0.00 | 22 | 1002.7 |
| 20260505055736 | 73 | 0 | 7.8 | 13.9 | 0.00 | 0.00 | 0.00 | 22 | 1002.6 |
| 20260505055234 | 73 | 0 | 7.8 | 13.9 | 0.00 | 0.00 | 0.00 | 22 | 1002.7 |
| 20260505054733 | 73 | 0 | 7.8 | 13.9 | 0.00 | 0.00 | 0.00 | 22 | 1002.6 |
| 20260505054504 | 73 | 0 | 7.0 | 13.9 | 0.00 | 0.00 | 0.00 | 22 | 1002.7 |
| 20260505053733 | 73 | 0 | 7.8 | 13.9 | 0.00 | 0.00 | 0.00 | 22 | 1002.7 |
| 20260505053233 | 73 | 0 | 7.8 | 13.0 | 0.00 | 0.00 | 0.00 | 22 | 1002.8 |
| 20260505052732 | 73 | 0 | 7.0 | 11.3 | 0.00 | 0.00 | 0.00 | 22 | 1002.9 |
| 20260505052230 | 73 | 0 | 7.0 | 12.2 | 0.00 | 0.00 | 0.00 | 22 | 1002.9 |
| 20260505051724 | 73 | 0 | 7.8 | 13.9 | 0.00 | 0.00 | 0.00 | 22 | 1003.0 |
| 20260505051225 | 73 | 0 | 7.8 | 14.8 | 0.00 | 0.00 | 0.00 | 22 | 1003.0 |
| 20260505050724 | 73 | 0 | 7.8 | 15.6 | 0.00 | 0.00 | 0.00 | 22 | 1003.0 |
| 20260505050225 | 73 | 0 | 7.8 | 15.6 | 0.00 | 0.00 | 0.00 | 22 | 1003.1 |
| 20260505041721 | 72 | 0 | 8.7 | 14.8 | 0.00 | 0.00 | 0.00 | 23 | 1003.0 |
| 20260505041219 | 72 | 0 | 8.7 | 14.8 | 0.00 | 0.00 | 0.00 | 23 | 1003.0 |
| 20260505040717 | 72 | 0 | 9.6 | 14.8 | 0.00 | 0.00 | 0.00 | 23 | 1003.0 |
| 20260505040218 | 72 | 0 | 9.6 | 17.4 | 0.00 | 0.00 | 0.00 | 23 | 1003.1 |
| 20260505035717 | 72 | 0 | 7.8 | 17.4 | 0.00 | 0.00 | 0.00 | 24 | 1003.0 |
| 20260505035217 | 72 | 0 | 7.0 | 14.8 | 0.00 | 0.00 | 0.00 | 24 | 1003.0 |
| 20260505034715 | 72 | 0 | 7.0 | 14.8 | 0.00 | 0.00 | 0.00 | 24 | 1003.0 |
| 20260505034212 | 72 | 0 | 7.0 | 12.2 | 0.00 | 0.00 | 0.00 | 24 | 1002.9 |
| 20260505033712 | 72 | 0 | 7.0 | 11.3 | 0.00 | 0.00 | 0.00 | 23 | 1003.0 |
| 20260505033209 | 73 | 0 | 7.0 | 13.0 | 0.00 | 0.00 | 0.00 | 23 | 1003.1 |
| 20260505032705 | 73 | 0 | 7.0 | 13.0 | 0.00 | 0.00 | 0.00 | 23 | 1003.1 |
| 20260505032203 | 73 | 0 | 7.8 | 13.9 | 0.00 | 0.00 | 0.00 | 23 | 1002.9 |
| 20260505031707 | 74 | 0 | 7.8 | 13.0 | 0.00 | 0.00 | 0.00 | 22 | 1002.8 |
| 20260505031701 | 74 | 0 | 7.8 | 13.9 | 0.00 | 0.00 | 0.00 | 23 | 1002.9 |
| 20260505030659 | 74 | 0 | 7.8 | 13.9 | 0.00 | 0.00 | 0.00 | 22 | 1003.0 |
| 20260505030430 | 74 | 0 | 7.8 | 13.9 | 0.00 | 0.00 | 0.00 | 22 | 1002.8 |
| 20260505025659 | 74 | 0 | 7.8 | 13.0 | 0.00 | 0.00 | 0.00 | 22 | 1002.9 |
| 20260505025200 | 74 | 0 | 7.0 | 13.0 | 0.00 | 0.00 | 0.00 | 22 | 1002.9 |
| 20260505024655 | 75 | 0 | 7.0 | 11.3 | 0.00 | 0.00 | 0.00 | 22 | 1002.8 |
| 20260505024155 | 75 | 0 | 7.0 | 11.3 | 0.00 | 0.00 | 0.00 | 22 | 1002.7 |
| 20260505023650 | 75 | 0 | 6.1 | 11.3 | 0.00 | 0.00 | 0.00 | 22 | 1002.7 |
| 20260505023150 | 75 | 0 | 6.1 | 10.4 | 0.00 | 0.00 | 0.00 | 21 | 1002.6 |
| 20260505022650 | 76 | 0 | 5.2 | 10.4 | 0.00 | 0.00 | 0.00 | 21 | 1002.6 |
| 20260505022146 | 76 | 0 | 5.2 | 16.5 | 0.00 | 0.00 | 0.00 | 20 | 1002.6 |
| 20260505021645 | 76 | 0 | 6.1 | 16.5 | 0.00 | 0.00 | 0.00 | 20 | 1002.7 |
| 20260505021139 | 77 | 0 | 7.0 | 11.3 | 0.00 | 0.00 | 0.00 | 20 | 1002.7 |
| 20260505020636 | 77 | 0 | 7.0 | 13.0 | 0.00 | 0.00 | 0.00 | 19 | 1002.6 |
| 20260505020136 | 77 | 0 | 7.8 | 13.0 | 0.00 | 0.00 | 0.00 | 18 | 1002.6 |
| 20260505015630 | 78 | 0 | 7.8 | 13.0 | 0.00 | 0.00 | 0.00 | 16 | 1002.6 |
| 20260505015131 | 78 | 0 | 7.8 | 12.2 | 0.00 | 0.00 | 0.00 | 14 | 1002.7 |
| 20260505014631 | 78 | 0 | 7.0 | 13.0 | 0.00 | 0.00 | 0.00 | 13 | 1002.6 |
| 20260505014131 | 79 | 0 | 7.8 | 13.0 | 0.00 | 0.00 | 0.00 | 13 | 1002.5 |
| 20260505013632 | 79 | 0 | 8.7 | 14.8 | 0.00 | 0.00 | 0.00 | 13 | 1002.4 |
| 20260505013359 | 79 | 0 | 8.7 | 15.6 | 0.00 | 0.00 | 0.00 | 13 | 1002.4 |
| 20260505012633 | 80 | 0 | 9.6 | 18.2 | 0.00 | 0.00 | 0.00 | 13 | 1002.2 |
| 20260505012629 | 79 | 0 | 9.6 | 16.5 | 0.00 | 0.00 | 0.00 | 13 | 1002.2 |
| 20260505011859 | 80 | 0 | 7.8 | 18.2 | 0.00 | 0.00 | 0.00 | 13 | 1002.2 |
| 20260505011130 | 80 | 0 | 8.7 | 15.6 | 0.00 | 0.00 | 0.00 | 13 | 1002.1 |
| 20260505010629 | 80 | 0 | 8.7 | 15.6 | 0.00 | 0.00 | 0.00 | 12 | 1002.2 |
| 20260505010129 | 80 | 0 | 8.7 | 13.9 | 0.00 | 0.00 | 0.00 | 12 | 1002.2 |
| 20260505005628 | 81 | 0 | 9.6 | 16.5 | 0.00 | 0.00 | 0.00 | 12 | 1002.4 |
| 20260505005127 | 81 | 0 | 10.4 | 16.5 | 0.00 | 0.00 | 0.00 | 11 | 1002.4 |
| 20260505004627 | 81 | 0 | 11.3 | 20.0 | 0.00 | 0.00 | 0.00 | 11 | 1002.4 |
| 20260505004119 | 81 | 0 | 11.3 | 20.0 | 0.00 | 0.00 | 0.00 | 11 | 1002.5 |
| 20260505003618 | 82 | 0 | 10.4 | 23.5 | 0.00 | 0.00 | 0.00 | 11 | 1002.5 |
| 20260505003116 | 82 | 0 | 11.3 | 23.5 | 0.00 | 0.00 | 0.00 | 11 | 1002.3 |
| 20260505002612 | 82 | 0 | 11.3 | 21.7 | 0.00 | 0.00 | 0.00 | 11 | 1002.5 |
| 20260505002112 | 82 | 0 | 10.4 | 19.1 | 0.00 | 0.00 | 0.00 | 11 | 1002.6 |
| 20260505001608 | 82 | 0 | 10.4 | 19.1 | 0.00 | 0.00 | 0.00 | 11 | 1002.5 |
| 20260505001106 | 82 | 0 | 9.6 | 18.2 | 0.00 | 0.00 | 0.00 | 11 | 1002.5 |
| 20260505000603 | 82 | 0 | 9.6 | 19.1 | 0.00 | 0.00 | 0.00 | 11 | 1002.5 |
| 20260504235603 | 83 | 0 | 12.2 | 21.7 | 0.00 | 0.00 | 0.00 | 11 | 1002.4 |
| 20260504235103 | 83 | 0 | 12.2 | 20.9 | 0.00 | 0.00 | 0.00 | 11 | 1002.4 |
| 20260504234601 | 83 | 0 | 12.2 | 20.0 | 0.00 | 0.00 | 0.00 | 11 | 1002.3 |
| 20260504234058 | 83 | 0 | 12.2 | 23.5 | 0.00 | 0.00 | 0.00 | 11 | 1002.3 |
| 20260504233557 | 83 | 0 | 10.4 | 23.5 | 0.00 | 0.00 | 0.00 | 11 | 1002.4 |
| 20260504233057 | 83 | 0 | 10.4 | 20.9 | 0.00 | 0.00 | 0.00 | 12 | 1002.4 |
| 20260504232831 | 83 | 0 | 12.2 | 20.0 | 0.00 | 0.00 | 0.00 | 11 | 1002.4 |
| 20260504232556 | 83 | 0 | 12.2 | 20.9 | 0.00 | 0.00 | 0.00 | 11 | 1002.5 |
| 20260504231556 | 84 | 0 | 11.3 | 20.0 | 0.00 | 0.00 | 0.00 | 11 | 1002.4 |
| 20260504231052 | 84 | 0 | 12.2 | 24.3 | 0.00 | 0.00 | 0.00 | 11 | 1002.4 |
| 20260504230554 | 84 | 0 | 12.2 | 24.3 | 0.00 | 0.00 | 0.00 | 10 | 1002.3 |
| 20260504230325 | 84 | 0 | 10.4 | 21.7 | 0.00 | 0.00 | 0.00 | 11 | 1002.2 |
| 20260504225552 | 85 | 0 | 11.3 | 24.3 | 0.00 | 0.00 | 0.00 | 10 | 1002.2 |
| 20260504225053 | 85 | 0 | 13.0 | 24.3 | 0.00 | 0.00 | 0.00 | 10 | 1002.1 |
| 20260504224552 | 85 | 0 | 12.2 | 24.3 | 0.00 | 0.00 | 0.00 | 10 | 1002.2 |
| 20260504224053 | 85 | 0 | 12.2 | 24.3 | 0.00 | 0.00 | 0.00 | 11 | 1002.2 |
| 20260504223825 | 85 | 0 | 12.2 | 20.0 | 0.00 | 0.00 | 0.00 | 11 | 1002.2 |
| 20260504223052 | 85 | 0 | 10.4 | 21.7 | 0.00 | 0.00 | 0.00 | 14 | 1002.0 |
| 20260504222552 | 85 | 0 | 9.6 | 21.7 | 0.00 | 0.00 | 0.00 | 16 | 1002.1 |
| 20260504222053 | 85 | 0 | 10.4 | 18.2 | 0.00 | 0.00 | 0.00 | 17 | 1002.4 |
| 20260504221551 | 85 | 0 | 9.6 | 18.2 | 0.00 | 0.00 | 0.00 | 14 | 1002.1 |
| 20260504221049 | 85 | 0 | 10.4 | 22.6 | 0.00 | 0.00 | 0.00 | 15 | 1002.7 |
| 20260504220546 | 86 | 0 | 11.3 | 22.6 | 0.00 | 0.00 | 0.00 | 17 | 1002.9 |
| 20260504220045 | 85 | 0 | 8.7 | 15.6 | 0.00 | 0.00 | 0.00 | 16 | 1002.6 |
| 20260504215532 | 85 | 0 | 8.7 | 14.8 | 0.00 | 0.00 | 0.00 | 18 | 1002.7 |
| 20260504215033 | 85 | 0 | 7.8 | 14.8 | 0.00 | 0.00 | 0.00 | 18 | 1002.7 |
| 20260504214803 | 85 | 0 | 7.8 | 15.6 | 0.00 | 0.00 | 0.00 | 19 | 1003.0 |
| 20260504214033 | 85 | 0 | 9.6 | 19.1 | 0.00 | 0.00 | 0.00 | 19 | 1003.0 |
| 20260504213537 | 85 | 0 | 11.3 | 20.9 | 0.00 | 0.00 | 0.00 | 20 | 1003.4 |
| 20260504213532 | 85 | 0 | 11.3 | 19.1 | 0.00 | 0.00 | 0.00 | 19 | 1003.3 |
| 20260504212533 | 85 | 0 | 8.7 | 20.9 | 0.00 | 0.00 | 0.00 | 20 | 1003.6 |
| 20260504212305 | 85 | 0 | 8.7 | 16.5 | 0.00 | 0.00 | 0.00 | 20 | 1003.5 |
| 20260504211530 | 85 | 0 | 7.8 | 16.5 | 0.00 | 0.00 | 0.00 | 20 | 1003.7 |
| 20260504211031 | 84 | 0 | 7.8 | 14.8 | 0.00 | 0.00 | 0.00 | 19 | 1003.8 |
| 20260504210532 | 84 | 0 | 9.6 | 20.0 | 0.00 | 0.00 | 0.00 | 18 | 1003.8 |
| 20260504210259 | 85 | 0 | 10.4 | 20.0 | 0.00 | 0.00 | 0.00 | 18 | 1004.1 |
| 20260504205526 | 85 | 0 | 7.8 | 19.1 | 0.00 | 0.00 | 0.00 | 17 | 1003.9 |
| 20260504205522 | 85 | 0 | 8.7 | 19.1 | 0.00 | 0.00 | 0.00 | 18 | 1003.9 |
| 20260504204516 | 85 | 0 | 8.7 | 20.0 | 0.00 | 0.00 | 0.00 | 17 | 1004.2 |
| 20260504204245 | 85 | 0 | 8.7 | 20.0 | 0.00 | 0.00 | 0.00 | 17 | 1004.3 |
| 20260504203741 | 86 | 0 | 9.6 | 16.5 | 0.00 | 0.00 | 0.00 | 17 | 1004.2 |
| 20260504203010 | 86 | 0 | 7.8 | 16.5 | 0.00 | 0.00 | 0.00 | 17 | 1004.4 |
| 20260504202511 | 86 | 0 | 10.4 | 23.5 | 0.00 | 0.00 | 0.00 | 18 | 1004.3 |
| 20260504202507 | 86 | 0 | 7.8 | 18.2 | 0.00 | 0.00 | 0.00 | 16 | 1004.3 |
| 20260504201734 | 86 | 0 | 11.3 | 23.5 | 0.00 | 0.00 | 0.00 | 18 | 1004.5 |
| 20260504201001 | 86 | 0 | 10.4 | 16.5 | 0.00 | 0.00 | 0.00 | 17 | 1004.5 |
| 20260504200458 | 86 | 0 | 10.4 | 17.4 | 0.00 | 0.00 | 0.00 | 17 | 1004.6 |
| 20260504195958 | 86 | 0 | 11.3 | 17.4 | 0.00 | 0.00 | 0.00 | 18 | 1004.5 |
| 20260504195458 | 86 | 0 | 10.4 | 17.4 | 0.00 | 0.00 | 0.00 | 18 | 1004.6 |
| 20260504194958 | 86 | 0 | 7.8 | 16.5 | 0.00 | 0.00 | 0.00 | 18 | 1004.7 |
| 20260504194458 | 85 | 0 | 7.0 | 15.6 | 0.00 | 0.00 | 0.00 | 19 | 1004.6 |
| 20260504194223 | 85 | 0 | 7.8 | 15.6 | 0.00 | 0.00 | 0.00 | 20 | 1004.8 |
| 20260504193452 | 86 | 0 | 9.6 | 18.2 | 0.00 | 0.00 | 0.00 | 20 | 1004.9 |
| 20260504192952 | 85 | 0 | 9.6 | 18.2 | 0.00 | 0.00 | 0.00 | 20 | 1005.1 |
| 20260504192447 | 85 | 0 | 7.8 | 14.8 | 0.00 | 0.00 | 0.00 | 21 | 1005.1 |
| 20260504192215 | 85 | 0 | 7.8 | 14.8 | 0.00 | 0.00 | 0.00 | 21 | 1005.3 |
| 20260504191443 | 85 | 0 | 7.8 | 16.5 | 0.00 | 0.00 | 0.00 | 21 | 1005.3 |
| 20260504190941 | 84 | 0 | 8.7 | 16.5 | 0.00 | 0.00 | 0.00 | 22 | 1005.4 |
| 20260504190442 | 83 | 0 | 9.6 | 16.5 | 0.00 | 0.00 | 0.00 | 22 | 1005.4 |
| 20260504185939 | 83 | 0 | 8.7 | 16.5 | 0.00 | 0.00 | 0.00 | 22 | 1005.5 |
| 20260504185709 | 83 | 0 | 9.6 | 20.0 | 0.00 | 0.00 | 0.00 | 24 | 1005.5 |
| 20260504184937 | 83 | 0 | 9.6 | 20.0 | 0.00 | 0.00 | 0.00 | 24 | 1005.6 |
| 20260504184705 | 83 | 0 | 8.7 | 16.5 | 0.00 | 0.00 | 0.00 | 24 | 1005.6 |
| 20260504183935 | 83 | 0 | 7.8 | 16.5 | 0.00 | 0.00 | 0.00 | 25 | 1005.8 |
| 20260504183435 | 83 | 0 | 7.8 | 15.6 | 0.00 | 0.00 | 0.00 | 24 | 1005.9 |
| 20260504182933 | 82 | 0 | 7.8 | 14.8 | 0.00 | 0.00 | 0.00 | 25 | 1005.9 |
| 20260504182433 | 82 | 0 | 7.8 | 14.8 | 0.00 | 0.00 | 0.00 | 26 | 1006.0 |
| 20260504181932 | 82 | 0 | 9.6 | 16.5 | 0.00 | 0.00 | 0.00 | 26 | 1006.3 |
| 20260504181433 | 82 | 0 | 10.4 | 16.5 | 0.00 | 0.00 | 0.00 | 26 | 1006.5 |
| 20260504180936 | 81 | 0 | 7.8 | 16.5 | 0.00 | 0.00 | 0.00 | 26 | 1006.7 |
| 20260504180932 | 82 | 0 | 8.7 | 16.5 | 0.00 | 0.00 | 0.00 | 26 | 1006.5 |
| 20260504175933 | 81 | 0 | 8.7 | 14.8 | 0.00 | 0.00 | 0.00 | 27 | 1006.7 |
| 20260504175437 | 81 | 0 | 9.6 | 14.8 | 0.00 | 0.00 | 0.00 | 27 | 1007.1 |
| 20260504175433 | 81 | 0 | 9.6 | 14.8 | 0.00 | 0.00 | 0.00 | 27 | 1006.9 |
| 20260504174432 | 80 | 0 | 9.6 | 15.6 | 0.00 | 0.00 | 0.00 | 28 | 1007.3 |
| 20260504173934 | 80 | 0 | 10.4 | 18.2 | 0.00 | 0.00 | 0.00 | 27 | 1007.3 |
| 20260504173433 | 80 | 0 | 10.4 | 18.2 | 0.00 | 0.00 | 0.00 | 27 | 1007.3 |
| 20260504172932 | 80 | 0 | 9.6 | 16.5 | 0.00 | 0.00 | 0.00 | 28 | 1007.3 |
| 20260504172432 | 80 | 0 | 9.6 | 16.5 | 0.00 | 0.00 | 0.00 | 29 | 1007.4 |
| 20260504171932 | 80 | 0 | 9.6 | 17.4 | 0.00 | 0.00 | 0.00 | 28 | 1007.3 |
| 20260504171432 | 80 | 0 | 10.4 | 17.4 | 0.00 | 0.00 | 0.00 | 29 | 1007.5 |
| 20260504170933 | 80 | 0 | 9.6 | 16.5 | 0.00 | 0.00 | 0.00 | 28 | 1007.5 |
| 20260504170432 | 80 | 0 | 9.6 | 17.4 | 0.00 | 0.00 | 0.00 | 28 | 1007.5 |
| 20260504160408 | 73 | 0 | 5.2 | 8.7 | 0.00 | 0.00 | 0.00 | 41 | 1008.4 |
| 20260504150855 | 69 | 0 | 6.1 | 13.0 | 0.00 | 0.00 | 0.00 | 48 | 1008.8 |
| 20260504150355 | 69 | 0 | 7.0 | 12.2 | 0.00 | 0.00 | 0.00 | 49 | 1008.9 |